星链-30945 (STARLINK-30945 )

导读

STARLINK-30945是美国太空探索技术公司Starlink星链星座的卫星成员,于2024年1月29日发射入轨。星链项目旨在构建全球卫星互联网星座,该卫星承担低轨卫星通信任务,为全球偏远、网络覆盖薄弱区域提供宽带互联网接入服务,是星链大规模低轨卫星组网部署的组成部分,进一步扩充了星链星座的服务覆盖能力与网络容量。

Basic Information
目录编号:
58874
目录名称:
STARLINK-30945
国际标识:
2024-019X
轨道中心:
EARTH
卫星名称:
星链-30945
卫星全名:
星链-30945 (STARLINK-30945 )
卫星状态:
在轨 (已飞行939 天)
发射日期:
2024-01-29 UTC
国别 :
美国 (US)
星等 :
--
Orbit Information
数据来源 国际轨道数据 AOE轨道数据
星历时间 2026-08-25T17:47:03+0800
9小时前
查看轨道信息
2026-08-19T23:00:00+0800
6天前
查看轨道信息
半长轴 6861.146km 6861.206km
偏心率 0.0001891 0.0000992
轨道倾角 43.004° 43.002°
近地点辐角 277.226° 244.677°
升交点赤经 16.251° 48.912°
平近点角 82.837° 317.546°
近地点 481.711km 482.388km
远地点 484.307km 483.75km
周期 94.266分钟 94.267分钟
每日圈数 15.275937 15.275735
Detailed Information
固有亮度:
5
最大亮度:
0.3
卫星平台:
Starlink v2.0 mini
覆盖范围:
全球
运营商:
太空探索技术公司
运营商所在国:
美国
制造商(研发单位):
太空探索技术公司
制造商所在国:
美国
使用方式:
暂无
Satellite Introduction
星链(Starlink)计划是由太空探索技术公司(SpaceX)提出的一个巨型低轨卫星互联网星座项目,计划在2019年至2024年间在太空搭建由约1.2万颗卫星组成的“星链”网络,其中1584颗将部署在地球上空550千米处的近地轨道,并从2020年开始工作。该卫星仍在工作。
2D Orbit Map
3D Orbit Map
Orbit Altitude Analysis Chart
Orbit Inclination Analysis Chart
Orbit Comprehensive Analysis Chart
View Comprehensive Chart